Overview Statistics Trail Chart Weather Telemetry Raw packets
 

This is the latest recevied weather packets stored in our database for station/object W4UWO. If no packets are shown the sender has not sent any weather packets the latest 10 day(s).

<< 72 73 74 75 76 77 78 >>
Time Temp. Humidity Pressure Rain* Wind** Luminosity Snow
1788106064 31.67° C 59% 1022.2 hPa 0 mm - 765 W/m² -
1788105764 31.67° C 60% 1022.1 hPa 0 mm - 739 W/m² -
1788105460 32.22° C 59% 1022.1 hPa 0 mm - 734 W/m² -
1788105156 31.67° C 60% 1022.1 hPa 0 mm - 726 W/m² -
1788104856 31.67° C 60% 1022 hPa 0 mm - 690 W/m² -
1788104552 31.11° C 62% 1021.8 hPa 0 mm - 680 W/m² -
1788104248 30.56° C 64% 1022 hPa 0 mm - 674 W/m² -
1788103943 31.11° C 63% 1021.7 hPa 0 mm - 662 W/m² -
1788103641 30.56° C 63% 1021.7 hPa 0 mm - 649 W/m² -
1788103336 30.56° C 65% 1021.9 hPa 0 mm - 636 W/m² -
1788103031 30° C 66% 1021.9 hPa 0 mm - 620 W/m² -
1788102730 30° C 66% 1021.9 hPa 0 mm - 610 W/m² -
1788102426 30° C 66% 1021.9 hPa 0 mm - 590 W/m² -
1788102120 29.44° C 67% 1021.9 hPa 0 mm - 581 W/m² -
1788101820 29.44° C 67% 1022 hPa 0 mm - 554 W/m² -
1788101515 29.44° C 67% 1021.9 hPa 0 mm - 546 W/m² -
1788101210 29.44° C 68% 1022 hPa 0 mm - 528 W/m² -
1788100906 28.89° C 69% 1021.9 hPa 0 mm - 516 W/m² -
1788100602 28.89° C 69% 1022 hPa 0 mm - 495 W/m² -
1788100300 28.89° C 71% 1021.9 hPa 0 mm - 484 W/m² -
1788099996 28.89° C 70% 1021.7 hPa 0 mm - 468 W/m² -
1788099696 28.89° C 71% 1021.8 hPa 0 mm - 453 W/m² -
1788099391 28.33° C 72% 1022 hPa 0 mm - 413 W/m² -
1788099086 28.33° C 71% 1022.1 hPa 0 mm - 415 W/m² -
1788098782 28.33° C 72% 1022.1 hPa 0 mm - 398 W/m² -

* Rain latest hour (hover to see other rain measurements)
** Current wind speed in m/s (hover to see current wind gust speed)